Regional Weather Roundup
Issued by NWS

Home | Current Version | Previous Version | Graphics & Text | Print | Product List | Glossary On
Versions: 1 2 3 4 5 6 7 8 9 10 11 12 13 14 15 16 17 18 19 20 21 22 23 24 25 26 27 28 29 30 31 32 33 34 35 36 37 38 39 40 41 42 43 44 45 46 47 48 49 50
000
ASUS44 KMEG 230800
RWRTN
TENNESSEE HOURLY STATE WEATHER ROUNDUP
NATIONAL WEATHER SERVICE MEMPHIS TN
300 AM CDT WED APR 23 2014

TNZ002-004-019-021-049-052-054-088>092-230900-
WEST TENNESSEE

CITY           SKY/WX    TMP DP  RH WIND       PRES   REMARKS
MEMPHIS INTL   CLEAR     58  41  53 NE6       29.97S
NWS MEMPHIS      N/A     51 N/A N/A MISG        N/A
JACKSON        CLEAR     48  39  71 CALM      29.97S
DYERSBURG      CLEAR     48  36  61 CALM      30.00S
UNION CITY     CLEAR     52  39  62 NE5       29.98R
LEXINGTON      CLEAR     46  39  76 CALM      29.96R
$$

TNZ008-025-027-028-033-062-065-066-230900-
NORTH MIDDLE TENNESSEE

CITY           SKY/WX    TMP DP  RH WIND       PRES   REMARKS
NASHVILLE      CLEAR     55  39  54 N5        29.96S
CLARKSVILLE    CLEAR     47  40  76 N3        29.97S
COOKEVILLE     CLEAR     43  37  81 CALM      29.94R
CROSSVILLE     CLEAR     50  34  54 N7        29.94S
$$

TNZ061-075-076-078-094-096-097-230900-
SOUTH MIDDLE TENNESSEE

CITY           SKY/WX    TMP DP  RH WIND       PRES   REMARKS
TULLAHOMA      CLEAR     48  37  66 N5        29.95S
WINCHESTER     CLEAR     45  41  87 CALM      29.95S
MCMINNVILLE    CLEAR     50  37  62 N5        29.94S
COLUMBIA       CLEAR     45  45 100 CALM      29.94S
$$

TNZ017-018-042-046-047-230900-
NORTHEAST TENNESSEE

CITY           SKY/WX    TMP DP  RH WIND       PRES   REMARKS
TRI CITIES     PTCLDY    51  30  44 N9        29.88R
ELIZABETHTON   SUNNY     52  34  50 CALM      29.87R
$$

TNZ012-013-036-069-073-074-230900-
CENTRAL EAST TENNESSEE

CITY           SKY/WX    TMP DP  RH WIND       PRES   REMARKS
KNOXVILLE      CLEAR     55  34  45 N8        29.90R
OAK RIDGE      CLEAR     51  38  60 CALM      29.93R
$$

TNZ083-085-099-230900-
SOUTHEAST TENNESSEE

CITY           SKY/WX    TMP DP  RH WIND       PRES   REMARKS
CHATTANOOGA    CLEAR     56  45  66 N5        29.91S
$$

SKY/WX REPORTED AS FAIR MEANS FEW OR NO CLOUDS BELOW
12 THOUSAND FEET.




USA.gov is the U.S. government's official web portal to all federal, state and local government web resources and services.